Location: Mercogliano
(40.9167°N, 14.7333°E)
Time: 07:34:40
(UTC+00:00)

CZ-2C R/B - Pass Details

Date: 25 January 2021
Orbit: 785 x 870 km, 98.2° (Epoch: 08 March)

Event Time Altitude Azimuth Distance (km) Brightness Sun altitude
Rises 03:50:50 0° 114° (ESE) 3,296 6.8 -27.7°
Reaches altitude 10° 03:54:14 10° 91° (E) 2,386 6.1 -27.0°
Maximum altitude 03:56:56 14° 60° (ENE) 2,111 5.4 -26.5°
Drops below altitude 10° 03:59:40 10° 29° (NNE) 2,420 5.4 -26.0°
Sets 04:03:08 0° 6° (N) 3,377 5.9 -25.3°
